Flag for Canada Weather past 2 weeks in Kitchener, Ontario, Canada

Now
68 °F

Broken clouds.


Feels Like: 68 °F
Forecast: 54 / 69 °F
Wind: 17 mph from Northwest

Location: Waterloo Well

Current Time: Jul 1, 2015 at 3:36:24 PM

Latest Report: Jul 1, 2015 at 3:00 PM


Visibility: 9 mi

Pressure: 29.84 "Hg

Humidity: 73%

Dew point: 59 °F

Location of KitchenerLocation

Historic Weather in Kitchener — Graph

°F

Kitchener temperature yesterday

Maximum temperature yesterday: 64 °F (at 10:55 AM)
Minimum temperature yesterday: 52 °F (at 2:48 AM)
Average temperature yesterday: 60 °F

Past Weeks' High & Low Weather Summary

 TemperatureHumidityPressure
High81 °F (Jun 22, 2:00 PM)100% (Jun 17, 1:54 AM)30.18 "Hg (Jun 17, 1:54 AM)
Low46 °F (Jun 20, 4:00 AM)37% (Jun 25, 3:00 PM)29.66 "Hg (Jun 23, 5:00 AM)
Average64 °F79%29.93 "Hg
* Reported Jun 16 2:00 PM — Jul 1 2:00 PM, Kitchener, Weather by CustomWeather, © 2015

Note: Actual official high and low records may vary slightly from our data, if they occured in-between our weather recording intervals... More about our weather records

Advertising

Kitchener weather history for previous 24 hours

 ConditionsComfort  
Time TempWeatherWind HumidityBarometerVisibility
2:00 PM
Wed, Jul 1
70 °FBroken clouds.16 mph69%29.83 "Hg9 mi
1:56 PM70 °FCloudy.16 mph69%29.83 "Hg9 mi
1:00 PM68 °FCloudy.14 mph73%29.82 "Hg9 mi
12:00 PM70 °FBroken clouds.15 mph69%29.81 "Hg9 mi
11:00 AM66 °FMostly cloudy.10 mph78%29.79 "Hg9 mi
10:52 AM66 °FMostly cloudy.12 mph78%29.79 "Hg9 mi
10:00 AM66 °FPartly sunny.14 mph78%29.78 "Hg9 mi
9:00 AM63 °FMostly cloudy.8 mph88%29.78 "Hg9 mi
8:00 AM61 °FMostly cloudy.9 mph94%29.77 "Hg9 mi
7:00 AM61 °FOvercast.8 mph88%29.76 "Hg9 mi
6:49 AM61 °FOvercast.8 mph88%29.76 "Hg9 mi
6:00 AM61 °FMostly cloudy.7 mph94%29.74 "Hg9 mi
5:00 AM61 °FFog.9 mph94%29.73 "Hg4 mi
4:51 AM59 °FFog.10 mph100%29.73 "Hg3 mi
4:00 AM59 °FFog.6 mph100%29.73 "Hg1 mi
3:00 AM59 °FFog.5 mph100%29.74 "Hg0 mi
2:59 AM59 °FFog.5 mph100%29.74 "Hg0 mi
2:00 AM59 °FFog.3 mph100%29.75 "Hg0 mi
1:53 AM59 °FFog.2 mph100%29.75 "Hg0 mi
1:00 AM59 °FFog.5 mph100%29.76 "Hg1 mi
12:00 AM61 °FFog.5 mph94%29.76 "Hg1 mi
11:00 PM
Tue, Jun 30
63 °FFog.3 mph94%29.77 "Hg2 mi
10:00 PM61 °FFog.2 mph100%29.77 "Hg2 mi
9:03 PM63 °FFog.No wind94%29.76 "Hg4 mi
8:00 PM64 °FFog.3 mph88%29.76 "Hg6 mi
7:00 PM64 °FFog.5 mph88%29.75 "Hg6 mi
6:00 PM63 °FFog.3 mph94%29.76 "Hg4 mi
5:00 PM63 °FFog.6 mph94%29.77 "Hg5 mi
4:00 PM64 °FFog.6 mph88%29.78 "Hg4 mi
3:47 PM63 °FFog.5 mph94%29.78 "Hg4 mi
3:00 PM64 °FOvercast.7 mph88%29.79 "Hg9 mi
Weather by CustomWeather, © 2015

See weather overviewHow to use our weather pages